Home   Weather   Rodgau   Past weeks

Flag for Germany Past Weather in Rodgau, Hesse, Germany — Yesterday and Last 2 Weeks

46 °F


Feels Like: 46 °F
Forecast: 39 / 54 °F
Wind: 2 mph from North

Location: Frankfurt-M-Flughafen Airport

Current Time: Oct 26, 2016 at 8:01:11 AM

Latest Report: Oct 26, 2016 at 7:20 AM

Visibility: N/A

Pressure: 30.33 "Hg

Humidity: 100%

Dew Point: 46 °F

Location of RodgauLocation

Past Weather in Rodgau — Graph


Rodgau Temperature Yesterday

Maximum temperature yesterday: 57 °F (at 11:50 AM)
Minimum temperature yesterday: 50 °F (at 7:50 AM)
Average temperature yesterday: 53 °F

High & Low Weather Summary for the Past Weeks

High64 °F (Oct 16, 3:50 PM)100% (Oct 15, 5:20 AM)30.33 "Hg (Oct 15, 5:20 AM)
Low39 °F (Oct 13, 2:20 AM)51% (Oct 11, 1:50 PM)29.65 "Hg (Oct 14, 7:20 PM)
Average49 °F87%30.01 "Hg
* Reported Oct 11 6:20 AM — Oct 26 6:50 AM, Rodgau, Weather by CustomWeather, © 2016

Note: Actual official high and low records may vary slightly from our data, if they occured in-between our weather recording intervals... More about our weather records


Rodgau Weather History for the Previous 24 Hours

Scroll right to see more
Time TempWeatherWind HumidityBarometerVisibility
6:50 AM
Wed, Oct 26
46 °FFog.1 mph100%30.33 "HgN/A
6:20 AM46 °FFog.2 mph100%30.33 "HgN/A
5:50 AM46 °FFog.1 mph100%30.33 "HgN/A
5:20 AM46 °FPassing clouds.2 mph100%30.33 "HgN/A
4:50 AM46 °FPassing clouds.No wind100%30.30 "HgN/A
4:20 AM46 °FPassing clouds.1 mph100%30.30 "HgN/A
3:50 AM46 °FPassing clouds.2 mph100%30.30 "HgN/A
3:20 AM46 °FFog.2 mph93%30.33 "HgN/A
2:50 AM46 °FFog.3 mph93%30.33 "HgN/A
2:20 AM46 °FFog.3 mph93%30.30 "HgN/A
1:50 AM48 °FFog.5 mph94%30.30 "HgN/A
1:20 AM52 °FPartly cloudy.7 mph82%30.30 "HgN/A
12:50 AM52 °FPassing clouds.3 mph82%30.30 "HgN/A
12:20 AM50 °FPassing clouds.5 mph88%30.30 "HgN/A
11:50 PM
Tue, Oct 25
52 °FPassing clouds.5 mph82%30.30 "HgN/A
11:20 PM52 °FPassing clouds.5 mph88%30.30 "HgN/A
10:50 PM52 °FPassing clouds.6 mph82%30.30 "HgN/A
10:20 PM54 °FPassing clouds.7 mph77%30.30 "HgN/A
9:50 PM52 °FPassing clouds.6 mph82%30.27 "HgN/A
9:20 PM54 °FPassing clouds.8 mph77%30.27 "HgN/A
8:50 PM54 °FPassing clouds.8 mph77%30.27 "HgN/A
8:20 PM54 °FPassing clouds.7 mph82%30.27 "HgN/A
7:50 PM54 °FPassing clouds.5 mph82%30.24 "HgN/A
7:20 PM54 °FPassing clouds.5 mph82%30.27 "HgN/A
6:50 PM54 °FPassing clouds.6 mph82%30.24 "HgN/A
6:20 PM55 °FPassing clouds.6 mph77%30.24 "HgN/A
5:50 PM55 °FPartly sunny.8 mph77%30.21 "HgN/A
5:20 PM57 °FPartly sunny.7 mph77%30.21 "HgN/A
4:50 PM57 °FPartly sunny.5 mph72%30.21 "HgN/A
4:20 PM57 °FPartly sunny.3 mph82%30.21 "HgN/A
3:50 PM57 °FPartly sunny.5 mph77%30.21 "HgN/A
3:20 PM57 °FBroken clouds.5 mph77%30.18 "HgN/A
2:50 PM55 °FBroken clouds.3 mph88%30.18 "HgN/A
2:20 PM55 °FBroken clouds.5 mph82%30.18 "HgN/A
1:50 PM57 °FBroken clouds.5 mph77%30.18 "HgN/A
1:20 PM55 °FPartly sunny.3 mph88%30.18 "HgN/A
12:50 PM55 °FBroken clouds.5 mph82%30.18 "HgN/A
12:20 PM55 °FScattered clouds.7 mph82%30.18 "HgN/A
11:50 AM57 °FBroken clouds.8 mph88%30.18 "HgN/A
11:20 AM55 °FPartly sunny.7 mph88%30.15 "HgN/A
10:50 AM54 °FPartly sunny.6 mph94%30.18 "HgN/A
10:20 AM54 °FPartly sunny.2 mph94%30.15 "HgN/A
9:50 AM52 °FPartly sunny.5 mph100%30.15 "HgN/A
9:20 AM52 °FPartly sunny.5 mph94%30.15 "HgN/A
8:50 AM52 °FBroken clouds.2 mph94%30.12 "HgN/A
8:20 AM50 °FPartly sunny.5 mph100%30.12 "HgN/A
Weather by CustomWeather, © 2016

See weather overviewHow to use our weather pages